Weather History for KLCH - May, 2013

Change the Weather History Date:

Sunday, May 12, 2013

  Actual Average Record
Temperature  
Mean Temperature 72 °F 75 °F  
Max Temperature 83 °F 84 °F 92 °F (1916)
Min Temperature 61 °F 66 °F 46 °F (1924)
Degree Days  
Heating Degree Days 0 0  
Month to date heating degree days 24 0  
Since 1 July heating degree days 1267 1489  
Cooling Degree Days 7 10  
Month to date cooling degree days 42 102  
Year to date cooling degree days 220 310  
Growing Degree Days 22 (Base 50)    
Moisture  
Dew Point 58 °F    
Average Humidity 62    
Maximum Humidity 87    
Minimum Humidity 37    
Precipitation  
Precipitation 0.00 in 0.16 in 1.94 in (1954)
Month to date precipitation 5.70 1.80  
Year to date precipitation 29.36 17.48  
Snow  
Snow 0.00 in 0.00 in 0.00 in ()
Month to date snowfall 0.0 0.0  
Since 1 July snowfall 0.0 0.1  
Snow Depth 0.00 in    
Sea Level Pressure  
Sea Level Pressure 30.15 in    
Wind  
Wind Speed 8 mph (NE)    
Max Wind Speed 16 mph    
Max Gust Speed 20 mph    
Visibility 10 miles    
Events      
T = Trace of Precipitation, MM = Missing Value Source: NWS Daily Summary

Daily Weather History Graph

Daily Weather History Graph

Search for Another Location

Airport or City:

Trip Planner

Search our weather history database for the weather conditions in past years. The results will help you decide how hot, cold, wet, or windy it might be!

Date:

Astronomy

May. 12, 2013 Rise Set
Actual Time 6:21 AM CDT 7:57 PM CDT
Civil Twilight 5:54 AM CDT 8:23 PM CDT
Nautical Twilight 5:23 AM CDT 8:55 PM CDT
Astronomical Twilight 4:51 AM CDT 9:28 PM CDT
Moon 8:19 AM CDT (5/12) 10:23 PM CDT (5/12)
Length of Visible Light 14h 28m
Length of Day
13h 36m
Waxing Crescent, 7% of the Moon is Illuminated
May 12
Waxing Crescent
May 17
First Quarter
May 24
Full
May 31
Last Quarter
Jun 8
New

Hourly Weather History & Observations

Time (CDT) Temp. Heat Index Dew Point Humidity Pressure Visibility Wind Dir Wind Speed Gust Speed Precip Events Conditions
12:53 AM 69.1 °F - 62.1 °F 78% 30.11 in 10.0 mi NNE 8.1 mph - N/A   Clear
1:53 AM 66.9 °F - 62.1 °F 84% 30.10 in 10.0 mi NE 4.6 mph - N/A   Clear
2:53 AM 64.9 °F - 61.0 °F 87% 30.10 in 10.0 mi NE 3.5 mph - N/A   Clear
3:53 AM 64.0 °F - 61.0 °F 90% 30.10 in 10.0 mi NE 5.8 mph - N/A   Clear
4:53 AM 64.9 °F - 61.0 °F 87% 30.12 in 10.0 mi NNE 4.6 mph - N/A   Clear
5:53 AM 64.0 °F - 61.0 °F 90% 30.13 in 10.0 mi Calm Calm - N/A   Clear
6:53 AM 64.0 °F - 61.0 °F 90% 30.14 in 10.0 mi NNE 5.8 mph - N/A   Clear
7:53 AM 66.9 °F - 62.1 °F 84% 30.15 in 10.0 mi NNE 3.5 mph - N/A   Clear
8:53 AM 72.0 °F - 61.0 °F 68% 30.16 in 10.0 mi NE 8.1 mph - N/A   Clear
9:53 AM 75.9 °F - 55.0 °F 48% 30.17 in 10.0 mi NE 9.2 mph - N/A   Clear
10:53 AM 78.1 °F - 55.0 °F 45% 30.18 in 10.0 mi NNE 10.4 mph - N/A   Clear
11:53 AM 78.1 °F - 55.0 °F 45% 30.19 in 10.0 mi NE 10.4 mph - N/A   Clear
12:53 PM 80.1 °F 80.2 °F 55.9 °F 43% 30.19 in 10.0 mi ENE 6.9 mph - N/A   Clear
1:53 PM 81.0 °F 80.8 °F 55.9 °F 42% 30.17 in 10.0 mi ENE 9.2 mph - N/A   Clear
2:53 PM 82.0 °F 81.3 °F 54.0 °F 38% 30.14 in 10.0 mi North 9.2 mph - N/A   Partly Cloudy
3:53 PM 82.9 °F 82.1 °F 55.9 °F 39% 30.13 in 10.0 mi North 10.4 mph - N/A   Clear
4:53 PM 80.1 °F 80.6 °F 57.9 °F 47% 30.12 in 10.0 mi NNE 9.2 mph - N/A   Partly Cloudy
5:53 PM 78.1 °F - 57.9 °F 50% 30.11 in 10.0 mi NNE 15.0 mph - N/A   Partly Cloudy
6:53 PM 77.0 °F - 57.9 °F 52% 30.13 in 10.0 mi NE 12.7 mph - N/A   Clear
7:53 PM 73.9 °F - 57.0 °F 55% 30.14 in 10.0 mi NE 11.5 mph - N/A   Clear
8:53 PM 71.1 °F - 55.0 °F 57% 30.16 in 10.0 mi NNE 12.7 mph - N/A   Clear
9:53 PM 66.0 °F - 55.9 °F 70% 30.19 in 10.0 mi NE 6.9 mph - N/A   Clear
10:53 PM 64.0 °F - 55.9 °F 75% 30.20 in 10.0 mi NE 4.6 mph - N/A   Clear
11:53 PM 62.1 °F - 55.0 °F 78% 30.21 in 10.0 mi NE 5.8 mph - N/A   Clear